OCN3TG LGIR-EDDM

Flight info

Callsign OCN3TG
Flight time 2h 32m
Altitude 36000
Route EPALO M749 DIRMI UL613 YNN UL604 DIMIS DCT VRANA DCT BERTA DCT RASTA DCT REDBU Q112 NAPSA NAPSA1B
Aircraft A320/M-SDE2E3FGIJ1LORWXYZ/HB1

Departure

Time 2026-05-06 02:56
Airport Heraklion International Nikos Kazantzakis Airport (LGIR)

Arrival

Time 2026-05-06 05:29
Airport Munich Airport (EDDM)
Time Latitude Longitude Altitude Speed Heading
2026-05-06 02:07 35.33760 25.17535 94 ft 0 kts 275°
2026-05-06 02:51 35.33760 25.17529 91 ft 3 kts 275°
2026-05-06 02:51 35.33775 25.17493 92 ft 5 kts 327°
2026-05-06 02:51 35.33806 25.17493 93 ft 4 kts
2026-05-06 02:51 35.33833 25.17495 91 ft 6 kts
2026-05-06 02:52 35.33882 25.17503 92 ft 7 kts 19°
2026-05-06 02:52 35.33906 25.17572 91 ft 12 kts 89°
2026-05-06 02:52 35.33899 25.17680 91 ft 13 kts 95°
2026-05-06 02:52 35.33892 25.17786 92 ft 13 kts 95°
2026-05-06 02:53 35.33885 25.17894 92 ft 13 kts 95°
2026-05-06 02:53 35.33877 25.18007 92 ft 14 kts 95°
2026-05-06 02:53 35.33869 25.18125 94 ft 14 kts 95°
2026-05-06 02:53 35.33860 25.18242 93 ft 14 kts 95°
2026-05-06 02:54 35.33852 25.18375 91 ft 17 kts 95°
2026-05-06 02:54 35.33845 25.18477 90 ft 18 kts 95°
2026-05-06 02:54 35.33833 25.18640 90 ft 20 kts 95°
2026-05-06 02:54 35.33816 25.18872 90 ft 20 kts 94°
2026-05-06 02:55 35.33845 25.18978 89 ft 20 kts 58°
2026-05-06 02:55 35.33899 25.19038 90 ft 8 kts 334°
2026-05-06 02:55 35.33910 25.18969 91 ft 8 kts 272°
2026-05-06 02:55 35.33915 25.18903 90 ft 11 kts 275°
2026-05-06 02:56 35.33935 25.18612 89 ft 69 kts 274°
2026-05-06 02:56 35.33993 25.17745 93 ft 132 kts 275°
2026-05-06 02:56 35.34084 25.16420 170 ft 172 kts 273°
2026-05-06 02:56 35.34201 25.14973 872 ft 172 kts 278°
2026-05-06 02:57 35.34835 25.13723 1460 ft 188 kts 327°
2026-05-06 02:57 35.36124 25.13131 1790 ft 211 kts 342°
2026-05-06 02:57 35.37629 25.12675 2205 ft 234 kts 345°
2026-05-06 02:57 35.39281 25.12191 2767 ft 251 kts 344°
2026-05-06 02:58 35.40989 25.11666 3635 ft 254 kts 344°
2026-05-06 02:58 35.42709 25.11111 4566 ft 257 kts 344°
2026-05-06 02:58 35.44442 25.10535 5450 ft 259 kts 345°
2026-05-06 02:58 35.46190 25.09940 6348 ft 262 kts 345°
2026-05-06 02:59 35.47948 25.09335 7186 ft 264 kts 345°
2026-05-06 02:59 35.49704 25.08724 7998 ft 267 kts 345°
2026-05-06 02:59 35.51505 25.08094 8813 ft 270 kts 345°
2026-05-06 02:59 35.53325 25.07452 9628 ft 273 kts 345°
2026-05-06 03:00 35.55164 25.06797 10343 ft 280 kts 343°
2026-05-06 03:00 35.56949 25.05625 10560 ft 305 kts 324°
2026-05-06 03:00 35.58684 25.03955 10814 ft 325 kts 323°
2026-05-06 03:00 35.60471 25.02201 11413 ft 332 kts 322°
2026-05-06 03:01 35.62277 25.00415 12134 ft 335 kts 322°
2026-05-06 03:01 35.64099 24.98615 12848 ft 337 kts 322°
2026-05-06 03:01 35.65933 24.96806 13599 ft 339 kts 322°
2026-05-06 03:01 35.67780 24.94991 14280 ft 341 kts 322°
2026-05-06 03:02 35.69654 24.93196 14926 ft 342 kts 323°
2026-05-06 03:02 35.71562 24.91432 15564 ft 344 kts 323°
2026-05-06 03:02 35.73496 24.89675 16194 ft 347 kts 323°
2026-05-06 03:02 35.75443 24.87911 16819 ft 349 kts 323°
2026-05-06 03:03 35.77402 24.86128 17432 ft 351 kts 323°
2026-05-06 03:03 35.79343 24.84349 18034 ft 353 kts 323°
2026-05-06 03:03 35.81316 24.82530 18592 ft 355 kts 323°
2026-05-06 03:03 35.83298 24.80694 19103 ft 357 kts 322°
2026-05-06 03:04 35.85317 24.78822 19618 ft 360 kts 322°
2026-05-06 03:04 35.87323 24.76964 20117 ft 362 kts 322°
2026-05-06 03:04 35.89318 24.75117 20603 ft 364 kts 322°
2026-05-06 03:04 35.91349 24.73237 21096 ft 366 kts 322°
2026-05-06 03:05 35.93393 24.71344 21574 ft 368 kts 322°
2026-05-06 03:05 35.95447 24.69439 22042 ft 370 kts 322°
2026-05-06 03:05 35.97516 24.67520 22510 ft 373 kts 322°
2026-05-06 03:05 35.99594 24.65589 22969 ft 375 kts 322°
2026-05-06 03:06 36.01688 24.63645 23433 ft 377 kts 322°
2026-05-06 03:06 36.03793 24.61691 23863 ft 379 kts 322°
2026-05-06 03:06 36.05899 24.59734 24265 ft 380 kts 322°
2026-05-06 03:06 36.08015 24.57764 24647 ft 381 kts 322°
2026-05-06 03:07 36.10138 24.55784 25011 ft 383 kts 322°
2026-05-06 03:07 36.12246 24.53820 25361 ft 385 kts 322°
2026-05-06 03:07 36.14392 24.51820 25712 ft 387 kts 322°
2026-05-06 03:07 36.16546 24.49813 26060 ft 388 kts 322°
2026-05-06 03:08 36.18709 24.47795 26408 ft 390 kts 322°
2026-05-06 03:08 36.20879 24.45768 26743 ft 392 kts 321°
2026-05-06 03:08 36.23063 24.43725 27086 ft 394 kts 321°
2026-05-06 03:08 36.25255 24.41676 27428 ft 396 kts 321°
2026-05-06 03:09 36.27457 24.39616 27764 ft 397 kts 321°
2026-05-06 03:09 36.29667 24.37542 28062 ft 400 kts 321°
2026-05-06 03:09 36.31890 24.35452 28364 ft 402 kts 321°
2026-05-06 03:09 36.34122 24.33352 28693 ft 403 kts 321°
2026-05-06 03:10 36.36361 24.31244 29000 ft 405 kts 321°
2026-05-06 03:10 36.38611 24.29130 29291 ft 406 kts 321°
2026-05-06 03:10 36.40871 24.27008 29579 ft 408 kts 321°
2026-05-06 03:10 36.43138 24.24875 29861 ft 410 kts 321°
2026-05-06 03:11 36.45413 24.22729 30141 ft 411 kts 321°
2026-05-06 03:11 36.47695 24.20576 30364 ft 413 kts 321°
2026-05-06 03:11 36.49987 24.18413 30657 ft 413 kts 321°
2026-05-06 03:11 36.52271 24.16259 31003 ft 411 kts 321°
2026-05-06 03:12 36.54547 24.14113 31344 ft 410 kts 322°
2026-05-06 03:12 36.56816 24.11971 31681 ft 409 kts 322°
2026-05-06 03:12 36.59077 24.09833 32020 ft 408 kts 322°
2026-05-06 03:12 36.61333 24.07698 32368 ft 406 kts 322°
2026-05-06 03:13 36.63580 24.05566 32695 ft 405 kts 322°
2026-05-06 03:13 36.65816 24.03440 33036 ft 404 kts 322°
2026-05-06 03:13 36.68046 24.01319 33366 ft 403 kts 322°
2026-05-06 03:13 36.70272 23.99201 33697 ft 402 kts 322°
2026-05-06 03:14 36.72491 23.97090 34029 ft 401 kts 322°
2026-05-06 03:14 36.74704 23.94984 34322 ft 400 kts 322°
2026-05-06 03:14 36.76884 23.92910 34584 ft 399 kts 322°
2026-05-06 03:14 36.79116 23.90781 34847 ft 399 kts 322°
2026-05-06 03:15 36.81320 23.88677 35098 ft 398 kts 322°
2026-05-06 03:15 36.83488 23.86607 35347 ft 398 kts 322°
2026-05-06 03:15 36.85683 23.84508 35568 ft 397 kts 322°
2026-05-06 03:15 36.87878 23.82411 35820 ft 397 kts 322°
2026-05-06 03:16 36.90068 23.80319 36008 ft 397 kts 322°
2026-05-06 03:16 36.94453 23.76121 36060 ft 396 kts 322°
2026-05-06 03:17 36.98832 23.71920 36066 ft 397 kts 322°
2026-05-06 03:17 37.03215 23.67715 36063 ft 397 kts 322°
2026-05-06 03:18 37.07596 23.63504 36063 ft 397 kts 322°
2026-05-06 03:18 37.11975 23.59284 36064 ft 397 kts 322°
2026-05-06 03:19 37.16357 23.55056 36084 ft 397 kts 322°
2026-05-06 03:19 37.20734 23.50828 36080 ft 397 kts 322°
2026-05-06 03:20 37.27261 23.44504 36076 ft 397 kts 322°
2026-05-06 03:20 37.31633 23.40268 36064 ft 397 kts 322°
2026-05-06 03:21 37.36006 23.36021 36072 ft 397 kts 322°
2026-05-06 03:21 37.40368 23.31769 36076 ft 397 kts 322°
2026-05-06 03:22 37.44734 23.27519 36080 ft 397 kts 322°
2026-05-06 03:22 37.49102 23.23264 36085 ft 397 kts 322°
2026-05-06 03:23 37.53461 23.19002 36085 ft 397 kts 322°
2026-05-06 03:23 37.57794 23.14764 36083 ft 397 kts 322°
2026-05-06 03:24 37.62151 23.10494 36075 ft 396 kts 322°
2026-05-06 03:24 37.66508 23.06220 36068 ft 397 kts 321°
2026-05-06 03:25 37.70869 23.01927 36084 ft 397 kts 321°
2026-05-06 03:25 37.75229 22.97632 36091 ft 398 kts 321°
2026-05-06 03:26 37.79594 22.93329 36090 ft 398 kts 321°
2026-05-06 03:26 37.83956 22.89018 36090 ft 398 kts 321°
2026-05-06 03:27 37.88319 22.84710 36094 ft 398 kts 321°
2026-05-06 03:27 37.92652 22.80422 36095 ft 398 kts 321°
2026-05-06 03:28 37.97012 22.76092 36086 ft 398 kts 321°
2026-05-06 03:28 38.01372 22.71762 36087 ft 399 kts 321°
2026-05-06 03:29 38.05741 22.67408 36087 ft 399 kts 321°
2026-05-06 03:29 38.10108 22.63043 36088 ft 400 kts 321°
2026-05-06 03:30 38.14482 22.58672 36093 ft 400 kts 321°
2026-05-06 03:30 38.18825 22.54330 36092 ft 400 kts 321°
2026-05-06 03:31 38.23222 22.49932 36089 ft 400 kts 321°
2026-05-06 03:31 38.27559 22.45583 36100 ft 400 kts 321°
2026-05-06 03:32 38.31931 22.41187 36091 ft 400 kts 321°
2026-05-06 03:32 38.36307 22.36778 36090 ft 401 kts 321°
2026-05-06 03:33 38.40689 22.32364 36098 ft 401 kts 321°
2026-05-06 03:33 38.45074 22.27943 36098 ft 402 kts 321°
2026-05-06 03:34 38.48713 22.24263 36104 ft 402 kts 320°
2026-05-06 03:34 38.53806 22.19099 36117 ft 402 kts 320°
2026-05-06 03:35 38.58185 22.14660 36114 ft 402 kts 321°
2026-05-06 03:35 38.62567 22.10211 36101 ft 402 kts 320°
2026-05-06 03:36 38.66952 22.05754 36107 ft 403 kts 320°
2026-05-06 03:36 38.71337 22.01281 36107 ft 403 kts 320°
2026-05-06 03:37 38.75696 21.96828 36110 ft 404 kts 320°
2026-05-06 03:37 38.80094 21.92340 36131 ft 404 kts 321°
2026-05-06 03:38 38.84484 21.87838 36137 ft 404 kts 320°
2026-05-06 03:38 38.88896 21.83304 36138 ft 403 kts 320°
2026-05-06 03:39 38.93243 21.78843 36124 ft 403 kts 320°
2026-05-06 03:39 38.97622 21.74330 36119 ft 404 kts 320°
2026-05-06 03:40 39.02005 21.69812 36110 ft 404 kts 320°
2026-05-06 03:40 39.06393 21.65283 36111 ft 404 kts 320°
2026-05-06 03:41 39.10781 21.60733 36132 ft 405 kts 320°
2026-05-06 03:41 39.15172 21.56186 36124 ft 404 kts 321°
2026-05-06 03:42 39.19557 21.51641 36130 ft 404 kts 320°
2026-05-06 03:42 39.23910 21.47117 36128 ft 404 kts 320°
2026-05-06 03:43 39.28288 21.42558 36129 ft 404 kts 320°
2026-05-06 03:43 39.31930 21.38767 36133 ft 404 kts 320°
2026-05-06 03:44 39.36305 21.34201 36137 ft 404 kts 320°
2026-05-06 03:44 39.40673 21.29627 36134 ft 404 kts 320°
2026-05-06 03:45 39.45041 21.25048 36148 ft 404 kts 320°
2026-05-06 03:45 39.49411 21.20460 36147 ft 404 kts 320°
2026-05-06 03:46 39.53779 21.15870 36144 ft 404 kts 320°
2026-05-06 03:46 39.58148 21.11269 36132 ft 405 kts 320°
2026-05-06 03:47 39.62521 21.06652 36145 ft 406 kts 320°
2026-05-06 03:47 39.66903 21.02023 36145 ft 406 kts 320°
2026-05-06 03:48 39.71283 20.97392 36143 ft 406 kts 320°
2026-05-06 03:48 39.75658 20.92747 36143 ft 406 kts 320°
2026-05-06 03:49 39.80019 20.88143 36145 ft 406 kts 320°
2026-05-06 03:49 39.84425 20.83546 36147 ft 406 kts 320°
2026-05-06 03:50 39.88834 20.78937 36155 ft 406 kts 320°
2026-05-06 03:50 39.93235 20.74305 36156 ft 407 kts 320°
2026-05-06 03:51 39.97631 20.69663 36155 ft 407 kts 320°
2026-05-06 03:51 40.02025 20.65009 36156 ft 407 kts 320°
2026-05-06 03:52 40.06424 20.60355 36152 ft 407 kts 321°
2026-05-06 03:52 40.11210 20.56389 36151 ft 408 kts 327°
2026-05-06 03:53 40.16063 20.52622 36161 ft 408 kts 327°
2026-05-06 03:53 40.20941 20.48819 36162 ft 408 kts 327°
2026-05-06 03:54 40.25825 20.45013 36144 ft 409 kts 327°
2026-05-06 03:54 40.30719 20.41196 36135 ft 410 kts 327°
2026-05-06 03:55 40.35624 20.37355 36138 ft 411 kts 327°
2026-05-06 03:55 40.40534 20.33505 36141 ft 411 kts 327°
2026-05-06 03:56 40.45446 20.29648 36146 ft 411 kts 327°
2026-05-06 03:56 40.50323 20.25810 36148 ft 411 kts 327°
2026-05-06 03:57 40.55232 20.21941 36147 ft 411 kts 327°
2026-05-06 03:57 40.60137 20.18066 36140 ft 411 kts 327°
2026-05-06 03:58 40.65030 20.14182 36157 ft 411 kts 327°
2026-05-06 03:58 40.69924 20.10294 36128 ft 411 kts 327°
2026-05-06 03:59 40.74839 20.06395 36117 ft 412 kts 327°
2026-05-06 03:59 40.79755 20.02494 36115 ft 413 kts 327°
2026-05-06 04:00 40.84677 19.98574 36127 ft 413 kts 327°
2026-05-06 04:00 40.89592 19.94644 36130 ft 413 kts 326°
2026-05-06 04:01 40.94512 19.90717 36125 ft 413 kts 327°
2026-05-06 04:01 40.99431 19.86782 36124 ft 413 kts 326°
2026-05-06 04:02 41.04346 19.82835 36122 ft 413 kts 326°
2026-05-06 04:02 41.09261 19.78884 36111 ft 413 kts 326°
2026-05-06 04:03 41.14181 19.74921 36106 ft 414 kts 326°
2026-05-06 04:03 41.19075 19.70982 36104 ft 414 kts 326°
2026-05-06 04:04 41.24000 19.67001 36106 ft 414 kts 326°
2026-05-06 04:04 41.28921 19.63009 36101 ft 414 kts 326°
2026-05-06 04:05 41.33845 19.59018 36109 ft 415 kts 326°
2026-05-06 04:05 41.38776 19.55008 36108 ft 415 kts 326°
2026-05-06 04:06 41.43706 19.50994 36106 ft 415 kts 326°
2026-05-06 04:06 41.48638 19.46975 36108 ft 416 kts 326°
2026-05-06 04:07 41.53575 19.42946 36105 ft 416 kts 326°
2026-05-06 04:07 41.58505 19.38913 36105 ft 416 kts 326°
2026-05-06 04:08 41.63406 19.34899 36107 ft 416 kts 326°
2026-05-06 04:08 41.68343 19.30851 36107 ft 416 kts 326°
2026-05-06 04:09 41.73281 19.26780 36107 ft 416 kts 326°
2026-05-06 04:09 41.78207 19.22715 36103 ft 416 kts 326°
2026-05-06 04:10 41.83142 19.18648 36114 ft 416 kts 326°
2026-05-06 04:10 41.88068 19.14581 36110 ft 416 kts 325°
2026-05-06 04:11 41.92983 19.10504 36105 ft 415 kts 325°
2026-05-06 04:11 41.97903 19.06415 36099 ft 416 kts 325°
2026-05-06 04:12 42.02825 19.02310 36112 ft 416 kts 325°
2026-05-06 04:12 42.07747 18.98212 36107 ft 416 kts 325°
2026-05-06 04:13 42.12672 18.94110 36105 ft 416 kts 325°
2026-05-06 04:13 42.17561 18.90023 36108 ft 416 kts 325°
2026-05-06 04:14 42.22478 18.85891 36105 ft 416 kts 324°
2026-05-06 04:14 42.27394 18.81757 36111 ft 416 kts 324°
2026-05-06 04:15 42.32310 18.77622 36107 ft 416 kts 324°
2026-05-06 04:15 42.37223 18.73479 36064 ft 416 kts 324°
2026-05-06 04:16 42.42143 18.69334 36076 ft 417 kts 324°
2026-05-06 04:16 42.47068 18.65180 36075 ft 417 kts 324°
2026-05-06 04:17 42.51989 18.61004 36093 ft 417 kts 324°
2026-05-06 04:17 42.56915 18.56816 36097 ft 418 kts 324°
2026-05-06 04:18 42.61812 18.52647 36093 ft 418 kts 324°
2026-05-06 04:18 42.66740 18.48448 36096 ft 418 kts 324°
2026-05-06 04:19 42.71666 18.44243 36104 ft 418 kts 324°
2026-05-06 04:19 42.76590 18.40026 36104 ft 418 kts 323°
2026-05-06 04:20 42.81520 18.35802 36101 ft 419 kts 323°
2026-05-06 04:20 42.86450 18.31571 36097 ft 419 kts 323°
2026-05-06 04:21 42.91376 18.27336 36111 ft 419 kts 323°
2026-05-06 04:21 42.96310 18.23083 36116 ft 419 kts 323°
2026-05-06 04:22 43.01244 18.18824 36109 ft 419 kts 323°
2026-05-06 04:23 43.08605 18.12442 36087 ft 420 kts 323°
2026-05-06 04:23 43.13541 18.08161 36078 ft 420 kts 323°
2026-05-06 04:24 43.18477 18.03881 36076 ft 420 kts 323°
2026-05-06 04:24 43.23418 17.99578 36065 ft 420 kts 323°
2026-05-06 04:25 43.28361 17.95252 36058 ft 421 kts 323°
2026-05-06 04:25 43.33298 17.90933 36057 ft 421 kts 323°
2026-05-06 04:26 43.38238 17.86607 36057 ft 421 kts 323°
2026-05-06 04:26 43.43171 17.82269 36061 ft 421 kts 323°
2026-05-06 04:27 43.48071 17.77955 36084 ft 421 kts 323°
2026-05-06 04:27 43.53006 17.73610 36087 ft 421 kts 323°
2026-05-06 04:28 43.57936 17.69257 36076 ft 421 kts 323°
2026-05-06 04:28 43.62872 17.64882 36084 ft 422 kts 323°
2026-05-06 04:29 43.67818 17.60497 36087 ft 422 kts 323°
2026-05-06 04:29 43.72729 17.56133 36086 ft 422 kts 323°
2026-05-06 04:30 43.77625 17.51645 36087 ft 421 kts 321°
2026-05-06 04:30 43.82341 17.46845 36088 ft 420 kts 319°
2026-05-06 04:31 43.87004 17.41944 36096 ft 421 kts 319°
2026-05-06 04:31 43.90900 17.37902 36089 ft 421 kts 319°
2026-05-06 04:32 43.95617 17.33086 36095 ft 421 kts 319°
2026-05-06 04:32 44.00334 17.28264 36089 ft 421 kts 319°
2026-05-06 04:33 44.05047 17.23420 36091 ft 421 kts 319°
2026-05-06 04:33 44.09750 17.18562 36088 ft 421 kts 319°
2026-05-06 04:34 44.14455 17.13690 36080 ft 422 kts 319°
2026-05-06 04:34 44.19163 17.08811 36074 ft 422 kts 319°
2026-05-06 04:35 44.23874 17.03926 36065 ft 422 kts 319°
2026-05-06 04:35 44.28554 16.99070 36058 ft 422 kts 319°
2026-05-06 04:36 44.33268 16.94167 36054 ft 423 kts 319°
2026-05-06 04:36 44.37982 16.89251 36047 ft 423 kts 319°
2026-05-06 04:37 44.42703 16.84316 36044 ft 423 kts 318°
2026-05-06 04:37 44.47411 16.79376 36031 ft 423 kts 318°
2026-05-06 04:38 44.52117 16.74422 36028 ft 423 kts 318°
2026-05-06 04:38 44.56825 16.69459 36029 ft 424 kts 318°
2026-05-06 04:39 44.61540 16.64492 36022 ft 424 kts 318°
2026-05-06 04:39 44.66252 16.59508 36017 ft 424 kts 318°
2026-05-06 04:40 44.70966 16.54519 36015 ft 424 kts 318°
2026-05-06 04:40 44.75679 16.49523 36018 ft 424 kts 318°
2026-05-06 04:41 44.80398 16.44510 36013 ft 425 kts 317°
2026-05-06 04:41 44.85085 16.39516 36001 ft 425 kts 317°
2026-05-06 04:42 44.89805 16.34475 35994 ft 426 kts 317°
2026-05-06 04:42 44.94529 16.29424 35990 ft 426 kts 317°
2026-05-06 04:43 44.99244 16.24358 35992 ft 426 kts 317°
2026-05-06 04:43 45.03966 16.19283 35997 ft 427 kts 317°
2026-05-06 04:44 45.08694 16.14195 35991 ft 427 kts 317°
2026-05-06 04:44 45.13422 16.09084 35988 ft 427 kts 317°
2026-05-06 04:45 45.18148 16.03971 35986 ft 427 kts 317°
2026-05-06 04:45 45.22842 15.98882 35992 ft 428 kts 317°
2026-05-06 04:46 45.27573 15.93753 35992 ft 428 kts 317°
2026-05-06 04:46 45.32300 15.88606 35987 ft 428 kts 317°
2026-05-06 04:47 45.37026 15.83448 35985 ft 428 kts 317°
2026-05-06 04:47 45.41752 15.78278 35981 ft 428 kts 317°
2026-05-06 04:48 45.46479 15.73105 35984 ft 428 kts 317°
2026-05-06 04:48 45.51201 15.67918 36005 ft 429 kts 317°
2026-05-06 04:49 45.55925 15.62720 35992 ft 429 kts 317°
2026-05-06 04:49 45.60652 15.57506 35986 ft 429 kts 317°
2026-05-06 04:50 45.65381 15.52282 35984 ft 429 kts 317°
2026-05-06 04:50 45.70069 15.47089 35982 ft 429 kts 317°
2026-05-06 04:51 45.74791 15.41844 35973 ft 429 kts 316°
2026-05-06 04:51 45.79511 15.36589 35973 ft 429 kts 316°
2026-05-06 04:52 45.84226 15.31325 35974 ft 429 kts 316°
2026-05-06 04:52 45.88934 15.26061 35977 ft 429 kts 316°
2026-05-06 04:53 45.93642 15.20788 35977 ft 429 kts 316°
2026-05-06 04:53 45.98322 15.15549 36014 ft 429 kts 316°
2026-05-06 04:54 46.03030 15.10262 36006 ft 429 kts 316°
2026-05-06 04:54 46.07727 15.04964 35986 ft 429 kts 316°
2026-05-06 04:55 46.12417 14.99659 35982 ft 429 kts 316°
2026-05-06 04:55 46.17108 14.94342 35970 ft 429 kts 316°
2026-05-06 04:56 46.21795 14.89026 36007 ft 429 kts 315°
2026-05-06 04:56 46.26478 14.83700 35990 ft 428 kts 315°
2026-05-06 04:57 46.31150 14.78379 35985 ft 428 kts 315°
2026-05-06 04:57 46.35816 14.73036 35977 ft 428 kts 315°
2026-05-06 04:58 46.40451 14.67723 35973 ft 427 kts 315°
2026-05-06 04:58 46.45112 14.62370 35981 ft 428 kts 315°
2026-05-06 04:59 46.49768 14.56988 35967 ft 427 kts 314°
2026-05-06 04:59 46.54406 14.51584 35958 ft 427 kts 314°
2026-05-06 05:00 46.59046 14.46167 35948 ft 428 kts 314°
2026-05-06 05:00 46.63688 14.40738 35945 ft 428 kts 314°
2026-05-06 05:01 46.68306 14.35324 35948 ft 428 kts 314°
2026-05-06 05:01 46.72945 14.29879 35964 ft 429 kts 314°
2026-05-06 05:02 46.77595 14.24415 35944 ft 429 kts 314°
2026-05-06 05:02 46.82252 14.18927 35939 ft 430 kts 314°
2026-05-06 05:03 46.86904 14.13439 35937 ft 430 kts 314°
2026-05-06 05:03 46.89229 14.10680 35817 ft 431 kts 314°
2026-05-06 05:03 46.91559 14.07914 35556 ft 431 kts 314°
2026-05-06 05:03 46.93885 14.05152 35322 ft 430 kts 314°
2026-05-06 05:04 46.96214 14.02381 35089 ft 433 kts 314°
2026-05-06 05:04 46.98555 13.99589 34842 ft 435 kts 314°
2026-05-06 05:04 47.00905 13.96781 34596 ft 436 kts 313°
2026-05-06 05:04 47.03254 13.93973 34356 ft 437 kts 313°
2026-05-06 05:05 47.05614 13.91160 34106 ft 438 kts 313°
2026-05-06 05:05 47.07984 13.88339 33857 ft 438 kts 313°
2026-05-06 05:05 47.10346 13.85525 33581 ft 438 kts 313°
2026-05-06 05:05 47.12689 13.82724 33307 ft 439 kts 313°
2026-05-06 05:06 47.15060 13.79881 33032 ft 441 kts 313°
2026-05-06 05:06 47.17434 13.77030 32762 ft 442 kts 313°
2026-05-06 05:06 47.19823 13.74161 32524 ft 442 kts 314°
2026-05-06 05:06 47.22213 13.71288 32257 ft 444 kts 314°
2026-05-06 05:07 47.24606 13.68408 31982 ft 444 kts 314°
2026-05-06 05:07 47.26986 13.65542 31491 ft 440 kts 314°
2026-05-06 05:07 47.29344 13.62699 30903 ft 436 kts 314°
2026-05-06 05:07 47.31650 13.59914 30293 ft 432 kts 314°
2026-05-06 05:08 47.33968 13.57106 29639 ft 430 kts 314°
2026-05-06 05:08 47.36270 13.54315 28950 ft 426 kts 314°
2026-05-06 05:08 47.38552 13.51548 28257 ft 423 kts 314°
2026-05-06 05:08 47.40813 13.48801 27641 ft 420 kts 314°
2026-05-06 05:09 47.43058 13.46069 27042 ft 417 kts 314°
2026-05-06 05:09 47.45285 13.43353 26488 ft 414 kts 313°
2026-05-06 05:09 47.47497 13.40654 25935 ft 410 kts 313°
2026-05-06 05:09 47.49689 13.37981 25366 ft 407 kts 313°
2026-05-06 05:10 47.51868 13.35329 24817 ft 404 kts 314°
2026-05-06 05:10 47.54036 13.32704 24251 ft 400 kts 314°
2026-05-06 05:10 47.56182 13.30111 23506 ft 397 kts 314°
2026-05-06 05:10 47.58320 13.27526 22930 ft 395 kts 314°
2026-05-06 05:11 47.60439 13.24964 22394 ft 391 kts 314°
2026-05-06 05:11 47.62537 13.22425 21861 ft 387 kts 314°
2026-05-06 05:11 47.64611 13.19901 21365 ft 383 kts 314°
2026-05-06 05:11 47.66659 13.17402 20856 ft 380 kts 314°
2026-05-06 05:12 47.68688 13.14916 20414 ft 376 kts 314°
2026-05-06 05:12 47.70700 13.12454 19985 ft 373 kts 315°
2026-05-06 05:12 47.72696 13.10012 19491 ft 371 kts 315°
2026-05-06 05:12 47.74684 13.07579 19038 ft 369 kts 315°
2026-05-06 05:13 47.76658 13.05162 18592 ft 366 kts 315°
2026-05-06 05:13 47.78591 13.02792 18154 ft 364 kts 316°
2026-05-06 05:13 47.80534 13.00407 17666 ft 361 kts 316°
2026-05-06 05:13 47.82468 12.98029 17183 ft 359 kts 316°
2026-05-06 05:14 47.84385 12.95668 16707 ft 357 kts 316°
2026-05-06 05:14 47.86290 12.93321 16237 ft 355 kts 316°
2026-05-06 05:14 47.88186 12.90984 15783 ft 353 kts 316°
2026-05-06 05:14 47.90071 12.88662 15336 ft 351 kts 317°
2026-05-06 05:15 47.91949 12.86348 14886 ft 349 kts 317°
2026-05-06 05:15 47.93814 12.84045 14451 ft 347 kts 317°
2026-05-06 05:15 47.95669 12.81747 14006 ft 346 kts 316°
2026-05-06 05:15 47.97471 12.79389 13581 ft 343 kts 314°
2026-05-06 05:16 47.99216 12.76982 13127 ft 340 kts 313°
2026-05-06 05:16 48.00924 12.74558 12676 ft 337 kts 313°
2026-05-06 05:16 48.02611 12.72143 12232 ft 335 kts 313°
2026-05-06 05:16 48.04299 12.69734 11772 ft 333 kts 313°
2026-05-06 05:17 48.05973 12.67362 11331 ft 331 kts 313°
2026-05-06 05:17 48.07645 12.65005 10889 ft 329 kts 314°
2026-05-06 05:17 48.09286 12.62699 10463 ft 327 kts 314°
2026-05-06 05:17 48.10943 12.60375 10036 ft 325 kts 314°
2026-05-06 05:18 48.12587 12.58070 9603 ft 323 kts 314°
2026-05-06 05:18 48.14222 12.55775 9139 ft 321 kts 314°
2026-05-06 05:18 48.15848 12.53488 8674 ft 319 kts 314°
2026-05-06 05:18 48.17459 12.51216 8214 ft 318 kts 314°
2026-05-06 05:19 48.19062 12.48959 7808 ft 314 kts 315°
2026-05-06 05:19 48.20630 12.46755 7577 ft 305 kts 315°
2026-05-06 05:19 48.22155 12.44611 7355 ft 296 kts 315°
2026-05-06 05:19 48.23628 12.42535 7195 ft 285 kts 315°
2026-05-06 05:20 48.25041 12.40536 7060 ft 274 kts 315°
2026-05-06 05:20 48.26400 12.38609 6910 ft 264 kts 315°
2026-05-06 05:20 48.27709 12.36751 6757 ft 254 kts 314°
2026-05-06 05:20 48.28976 12.34949 6615 ft 249 kts 314°
2026-05-06 05:21 48.30227 12.33163 6467 ft 247 kts 314°
2026-05-06 05:21 48.31476 12.31385 6325 ft 247 kts 315°
2026-05-06 05:21 48.32301 12.30214 6228 ft 247 kts 315°
2026-05-06 05:21 48.33543 12.28449 6070 ft 242 kts 315°
2026-05-06 05:22 48.34747 12.26740 5927 ft 235 kts 315°
2026-05-06 05:22 48.35915 12.25072 5762 ft 228 kts 312°
2026-05-06 05:22 48.36817 12.23181 5613 ft 219 kts 294°
2026-05-06 05:22 48.37285 12.21053 5461 ft 212 kts 276°
2026-05-06 05:23 48.37313 12.18879 5308 ft 205 kts 265°
2026-05-06 05:23 48.37187 12.16765 5160 ft 201 kts 263°
2026-05-06 05:23 48.36886 12.12631 4996 ft 197 kts 263°
2026-05-06 05:24 48.36735 12.10578 5003 ft 198 kts 263°
2026-05-06 05:24 48.36584 12.08523 5004 ft 198 kts 263°
2026-05-06 05:24 48.36435 12.06513 4900 ft 191 kts 263°
2026-05-06 05:24 48.36289 12.04543 4667 ft 189 kts 264°
2026-05-06 05:25 48.36144 12.02589 4418 ft 187 kts 264°
2026-05-06 05:25 48.36000 12.00652 4168 ft 186 kts 264°
2026-05-06 05:25 48.35856 11.98724 3921 ft 185 kts 264°
2026-05-06 05:25 48.35715 11.96833 3675 ft 184 kts 264°
2026-05-06 05:26 48.35570 11.94901 3436 ft 183 kts 264°
2026-05-06 05:26 48.35432 11.93056 3196 ft 176 kts 264°
2026-05-06 05:26 48.35299 11.91290 2975 ft 164 kts 264°
2026-05-06 05:26 48.35175 11.89656 2770 ft 149 kts 263°
2026-05-06 05:27 48.35062 11.88153 2551 ft 141 kts 263°
2026-05-06 05:27 48.34955 11.86698 2321 ft 140 kts 264°
2026-05-06 05:27 48.34849 11.85249 2115 ft 139 kts 264°
2026-05-06 05:27 48.34738 11.83797 1947 ft 140 kts 263°
2026-05-06 05:28 48.34617 11.82344 1756 ft 140 kts 264°
2026-05-06 05:28 48.34514 11.80883 1581 ft 140 kts 265°
2026-05-06 05:28 48.34403 11.79448 1485 ft 129 kts 264°
2026-05-06 05:28 48.34320 11.78383 1477 ft 69 kts 263°
2026-05-06 05:29 48.34319 11.77983 1484 ft 29 kts 290°
2026-05-06 05:29 48.34400 11.77696 1482 ft 30 kts 294°
2026-05-06 05:29 48.34473 11.77480 1479 ft 22 kts 317°
2026-05-06 05:29 48.34611 11.77457 1474 ft 21 kts 41°
2026-05-06 05:30 48.34646 11.77666 1480 ft 21 kts 83°
2026-05-06 05:30 48.34664 11.77895 1485 ft 23 kts 83°
2026-05-06 05:30 48.34683 11.78142 1473 ft 25 kts 83°
2026-05-06 05:30 48.34701 11.78379 1485 ft 23 kts 84°
2026-05-06 05:31 48.34718 11.78611 1485 ft 21 kts 83°
2026-05-06 05:31 48.34736 11.78843 1485 ft 23 kts 83°
2026-05-06 05:31 48.34756 11.79092 1480 ft 25 kts 84°
2026-05-06 05:31 48.34774 11.79328 1482 ft 21 kts 83°
2026-05-06 05:32 48.34802 11.79536 1475 ft 18 kts 48°
2026-05-06 05:32 48.34925 11.79545 1475 ft 19 kts 353°
2026-05-06 05:32 48.35052 11.79572 1480 ft 19 kts 52°
2026-05-06 05:32 48.35077 11.79778 1485 ft 21 kts 83°
2026-05-06 05:33 48.35095 11.80005 1485 ft 23 kts 83°
2026-05-06 05:33 48.35114 11.80251 1473 ft 24 kts 80°
2026-05-06 05:33 48.35140 11.80509 1482 ft 22 kts 84°
2026-05-06 05:33 48.35154 11.80694 1485 ft 16 kts 83°
2026-05-06 05:34 48.35150 11.80788 1478 ft 7 kts 129°
2026-05-06 05:34 48.35113 11.80812 1485 ft 5 kts 169°
2026-05-06 05:34 48.35082 11.80818 1476 ft 4 kts 173°
2026-05-06 05:34 48.35073 11.80820 1480 ft 0 kts 173°